Tracking 30995 objects as of 5-Jul-2025
HD Live streaming from Space Station
objects crossing your sky now

YAOGAN-36 02C

Track YAOGAN-36 02C now!
10-day predictions


NORAD ID: 54045
Int'l Code: 2022-133D
Perigee: 475.7 km
Apogee: 496.9 km
Inclination: 35.0 °
Period: 94.2 minutes
Semi major axis: 6857 km
RCS: Unknown
Launch date: October 14, 2022
Source: People's Republic of China (PRC)
Launch site: Xichang Space Center, China (XSC)
Your satellite tracking list
Your tracking list is empty




NASA's NSSDC Master Catalog

Two Line Element Set (TLE):
1 54045U 22133D   25186.33961555  .00013241  00000-0  45890-3 0  9998
2 54045  34.9893 143.3875 0015476 259.8389 100.0582 15.28887741151817
Source of the keplerian elements: AFSPC